Change the Weather History Date:

Wednesday, January 16, 2013

  Actual Average Record
Temperature  
Mean Temperature 60 °F -  
Max Temperature 75 °F 78 °F 87 °F (2002)
Min Temperature 44 °F 51 °F 39 °F (2008)
Degree Days  
Heating Degree Days 6    
Growing Degree Days 10 (Base 50)    
Moisture  
Dew Point 45 °F    
Average Humidity 65    
Maximum Humidity 87    
Minimum Humidity 38    
Precipitation  
Precipitation 0.00 in - - ()
Sea Level Pressure  
Sea Level Pressure 29.92 in    
Wind  
Wind Speed 6 mph ()    
Max Wind Speed 13 mph    
Max Gust Speed -    
Visibility 11.0 miles    
Events      
Averages and records for this station are not official NWS values.
T = Trace of Precipitation, MM = Missing Value Source: Averaged Metar Reports

Daily Weather History Graph

Daily Weather History Graph

Search for Another Location

Airport or City:

Trip Planner

Search our weather history database for the weather conditions in past years. The results will help you decide how hot, cold, wet, or windy it might be!

Date:

Astronomy

Jan. 16, 2013 Rise Set
Actual Time 6:48 AM MST 5:41 PM MST
Civil Twilight 6:24 AM MST 6:05 PM MST
Nautical Twilight 5:56 AM MST 6:33 PM MST
Astronomical Twilight 5:29 AM MST 7:00 PM MST
Moon 10:09 AM MST (1/16) 10:49 PM MST (1/16)
Length of Visible Light 11h 41m
Length of Day
10h 53m
Waxing Crescent, 29% of the Moon is Illuminated
Jan 16
Waxing Crescent
Jan 18
First Quarter
Jan 26
Full
Feb 3
Last Quarter
Feb 10
New

Hourly Weather History & Observations

Time (MST) Temp. Windchill Dew Point Humidity Pressure Visibility Wind Dir Wind Speed Gust Speed Precip Events Conditions
1:53 AM 46.4 °F - 35.6 °F 66% 29.94 in 10.0 mi Calm Calm - N/A   Mostly Cloudy
2:41 AM 46.4 °F 42.9 °F 37.4 °F 71% 29.94 in 10.0 mi North 6.9 mph - N/A   Mostly Cloudy
3:43 AM 44.6 °F 39.7 °F 39.2 °F 81% 29.95 in 10.0 mi North 9.2 mph - N/A   Mostly Cloudy
4:44 AM 44.6 °F 40.2 °F 39.2 °F 81% 29.95 in 10.0 mi NE 8.1 mph - N/A   Mostly Cloudy
5:42 AM 44.6 °F - 39.2 °F 81% 29.93 in 10.0 mi Calm Calm - N/A   Scattered Clouds
6:43 AM 44.6 °F 40.7 °F 41.0 °F 87% 29.94 in 12.0 mi NW 6.9 mph - N/A   Mostly Cloudy
7:42 AM 46.4 °F - 42.8 °F 87% 29.96 in 12.0 mi Calm Calm - N/A   Mostly Cloudy
8:46 AM 53.6 °F - 46.4 °F 77% 29.98 in 12.0 mi NW 6.9 mph - N/A   Mostly Cloudy
9:46 AM 62.6 °F - 51.8 °F 68% 29.97 in 12.0 mi NNE 3.5 mph - N/A   Mostly Cloudy
10:51 AM 69.8 °F - 51.8 °F 53% 29.95 in 12.0 mi SSW 6.9 mph - N/A   Mostly Cloudy
11:47 AM 73.4 °F - 50.0 °F 44% 29.91 in 12.0 mi SSE 9.2 mph - N/A   Mostly Cloudy
12:48 PM 73.4 °F - 50.0 °F 44% 29.88 in 12.0 mi SSW 10.4 mph - N/A   Mostly Cloudy
1:44 PM 73.4 °F - 50.0 °F 44% 29.86 in 12.0 mi SW 11.5 mph - N/A   Mostly Cloudy
2:43 PM 75.2 °F - 48.2 °F 38% 29.84 in 12.0 mi WSW 12.7 mph - N/A   Mostly Cloudy
3:40 PM 73.4 °F - 48.2 °F 41% 29.84 in 12.0 mi WSW 11.5 mph - N/A   Mostly Cloudy
4:51 PM 71.6 °F - 46.4 °F 41% 29.84 in 12.0 mi West 10.4 mph - N/A   Mostly Cloudy
5:41 PM 66.2 °F - 48.2 °F 52% 29.87 in 12.0 mi WSW 10.4 mph - N/A   Mostly Cloudy
6:41 PM 62.6 °F - 48.2 °F 59% 29.89 in 10.0 mi WNW 8.1 mph - N/A   Mostly Cloudy
7:42 PM 57.2 °F - 46.4 °F 67% 30.14 in 10.0 mi West 8.1 mph - N/A   Mostly Cloudy
8:40 PM 55.4 °F - 46.4 °F 72% 29.91 in 10.0 mi West 5.8 mph - N/A   Mostly Cloudy
9:48 PM 51.8 °F - 42.8 °F 71% 29.91 in 10.0 mi NE 5.8 mph - N/A   Mostly Cloudy
10:43 PM 48.2 °F - 42.8 °F 82% 29.92 in 10.0 mi NE 9.2 mph - N/A   Mostly Cloudy
11:50 PM 48.2 °F - 44.6 °F 87% 29.92 in 10.0 mi East 8.1 mph - N/A   Scattered Clouds